User: anonymous   Login
Location: Cow Canyon Saddle
(34.2291°N, 117.6698°W)
Time: 09:43:28
(UTC-07:00)
Language:

Lacrosse 5 - Orbit

View from above orbital plane
View from above orbital plane
View from above satellite
View from above satellite

Ground track
Ground track

The orbit data is extracted from the following two-line orbital elements,

1 28646U 05016A   18122.82333838 0.00000000  00000-0  00000-0 0    03
2 28646  57.0110  13.7101 0003000  98.4796 261.5203 14.51908282    00
Epoch (UTC): 02 May 2018 19:45:36
Eccentricity: 0.0003000
inclination: 57.0110°
perigee height: 717 km
apogee height: 721 km
right ascension of ascending node: 13.7101°
argument of perigee: 98.4796°
revolutions per day: 14.51908282
mean anomaly at epoch: 261.5203°
orbit number at epoch: 0

The dashed part of the orbit path shows where the satellite is in the earth's shadow,  

DLR